THOR ABLESTAR DEB, 416

Orbit data source: Space-Track

THOR ABLESTAR DEB, 416 is space debris in LEO originally from a launch on Thu, 29 Jun 1961 UTC launched from the Air Force Eastern Test Range (AFETR). Debris objects in space refer to the collection of defunct objects orbiting the Earth. Examples of debris include non-operational satellites, rocket bodies, and fragments generated from explosions, collisions, or faulty payload assembly.

Loading next visibility...
Identifier
416, 1961-015ER
Orbit
LEO
Country
Flag of USUS
Related business
Manufacturer
Unknown
Mission
Spacecraft
Bus & Motor
Unknown
Mass
Unknown
Launch date (UTC)
1961-06-29 (65 years ago)
Launch vehicle
Unknown
Launch site
Air Force Eastern Test Range (AFETR)
Object type
Payload
Rocket body
Debris
Shape & HBR
Unknown shape, 0.1 m
Radar Cross Section
Small (<0.1 m²)

Expand to show TLE details & history
Last TLE update: 6 hours ago

TLE from 6 hours ago
0 THOR ABLESTAR DEB
1   416U 61015ER  26034.02872751  .00000367  00000-0  22689-3 0  9997
2   416  66.4916 261.0310 0083738 260.4296  98.7323 14.14603308312879
Epoch: 2026-02-03T00:41Z
TLE epoch observation values (Epoch: 2026-02-03T00:41:22.056Z)
Latitude
-0.00005°
Longitude
117.47354°
Altitude
855.413 km
Speed
7.42 km/s
True Right ascension
17h 24m 07s
True Declination
0° 00' 00"
Sunlit
Object was in daylight at epoch
Visualization orbit readout
Latitude
Unknown
Longitude
Unknown
Altitude
Unknown
Speed
Unknown
Apparent Right ascension
Unknown
Apparent Declination
Unknown
Sunlit
N/A
Visualization observer readout
Local Sidereal Time
08:42:50
Azimuth
Unknown
Elevation
Unknown
Doppler factor
Unknown
Orbital elements
Apogee altitude
902.533 km
Perigee altitude
781.612 km
Semi-major axis
7,220.21 km
Eccentricity
0.00837
Inclination
66.4916°
RAAN
261.031°
Arg. of periapsis
260.4296°
True anomaly
99.6792°
Mean anomaly
98.7323°
Eccentric anomaly
99.2059°
Mean motion
3.53768 °/min
Orbital period
101.76 mins
BSTAR
0.00022689

Documentation

Showing up to 5 results
|